Location: ???? ???? ?????
(31.2680°N, 31.7283°E)
Time: 19:49:38
(UTC+00:00)

Spot 2 Rocket - Pass Details

Date: 13 July 2020
Orbit: 757 x 772 km, 98.6° (Epoch: 06 August)

Event Time Altitude Azimuth Distance (km) Brightness Sun altitude
Exits shadow 19:38:38 46° 237° (WSW) 1,029 4.1 -27.3°
Maximum altitude 19:39:14 48° 260° (W) 997 4.1 -27.4°
Drops below altitude 10° 19:44:10 10° 334° (NNW) 2,317 6.9 -28.0°
Sets 19:46:34 0° 340° (NNW) 3,248 7.9 -28.3°
